Other Public Products
Issued by NWS Charleston, SC

Current Version | Previous Version | Graphics & Text | Print | Product List | Glossary On
Versions: 1 2 3 4 5 6 7 8 9 10 11 12 13 14 15 16 17 18 19 20 21 22 23 24 25 26 27 28 29 30 31 32 33 34 35 36 37 38 39 40 41 42 43 44 45 46 47 48 49 50
000
FPUS82 KCHS 221712
OPUCHS

TEST...KCHS/KSAV Gateway Observations...TEST
National Weather Service Charleston SC
100 PM EDT MON MAY 22 2017

NOTE: "fair" indicates few or no clouds below 12,000 feet with no
significant weather and/or obstructions to visibility.

SCZ050-WAZ558-NCZ071-TXZ119-213-PAZ071-DCZ001-FLZ074-172-MI076-
NYZ176-178-MAZ016-IL014-TNZ027-NJZ106-GAZ044-MD014-221800-

...Gateway Observations for Charleston International...

CITY           SKY/WX    TMP DP  RH WIND       PRES   REMARKS
Chas Airport   LGT RAIN  81  73  76 SW10      30.04F
Seattle        PTSUNNY   70  51  51 N10       30.16F
Charlotte      PTSUNNY   76  66  71 SW8       30.05F
Dallas DFW     MOSUNNY   75  60  59 VRB6      30.05F
Dallas Love    MOSUNNY   74  57  55 E7        30.06F
Philladelphia  RAIN      61  58  90 CALM      30.05S FOG
Wash National  CLOUDY    65  62  90 SE6       30.04F
Baltimore      CLOUDY    63  61  93 SW3       30.03F
Miami          MOSUNNY   88  71  57 SE15      30.06F HX  94
Detroit        MOSUNNY   63  45  51 SW15G25   30.01F
Newark         LGT RAIN  57  56  96 E8        30.07F
Laguardia      LGT RAIN  60  55  83 E7        30.07F
J F K          RAIN      57  57 100 SE12      30.08F FOG
Boston Logan   CLOUDY    50  46  86 E9        30.16F
Ft. Lauderdale MOSUNNY   86  70  58 SE15      30.06F HX  90
Chicago O`Hare MOSUNNY   65  44  46 SW16G26   29.99S
Chicago Midway MOSUNNY   67  45  45 SW16G29   30.00F
Houston Bush   LGT RAIN  76  70  82 S12G17    29.94F
Houston Hobby  LGT RAIN  74  72  93 S13G22    29.94R
Nashville      PTSUNNY   71  48  43 NE8       30.12F
Atlanta        CLOUDY    78  68  71 E8        30.04F

$$

GAZ044-118-TXZ119-213-NCZ071-DCZ001-MDZ014-506-PAZ021-071-NJZ106-
NYZ176-178-MAZ106-OHZ011-021-055-MIZ076-KYZ091-ILZ014-INZ047-
MNZ060-ONZ431-221800-

...Gateway Observations for Savannah International...

CITY           SKY/WX    TMP DP  RH WIND       PRES   REMARKS
Savannah Arpt  PTSUNNY   84  68  58 SW6       30.03F
Atlanta        CLOUDY    78  68  71 E8        30.04F
Charlotte      PTSUNNY   76  66  71 SW8       30.05F
Dallas DFW     MOSUNNY   75  60  59 VRB6      30.05F
Houston Bush   LGT RAIN  76  70  82 S12G17    29.94F
Wash National  CLOUDY    65  62  90 SE6       30.04F
Wash Dulles    CLOUDY    64  61  90 S5        30.03F
Baltimore      CLOUDY    63  61  93 SW3       30.03F
Philadelphia   RAIN      61  58  90 CALM      30.05S FOG
Newark         LGT RAIN  57  56  96 E8        30.07F
Laguardia      LGT RAIN  60  55  83 E7        30.07F
J F K          RAIN      57  57 100 SE12      30.08F FOG
Boston         CLOUDY    50  46  86 E9        30.16F
Pittsburg      PTSUNNY   64  48  56 W14       30.03F
Akron          PTSUNNY   59  42  53 W13G22    30.07F
Cleveland      PTSUNNY   63  45  51 SW16G22   30.07F
Cincinnati     CLOUDY    63  42  46 NW7       30.13F
Columbus       MOSUNNY   61  45  54 W6        30.11F
Detroit        MOSUNNY   63  45  51 SW15G25   30.01F
Chicago O`Hare MOSUNNY   65  44  46 SW16G26   29.99S
Minneapolis    MOSUNNY   61  42  49 W15G22    29.84F
Indianapolis   PTSUNNY   65  47  52 S6        30.11S
Toronto Canada PTSUNNY   57  46  67 W15G22    29.93R

$$




USA.gov is the U.S. government's official web portal to all federal, state and local government web resources and services.